Wind_Speed
40 40 42 42 42 44 48 48 47 46 52 54 46 54 48 53 58 61 60 59 58 60 62 65 67 69 67 65 65 67 69 69 67 63 61 59 56 54 47 44 42 42 42 43
41 44 45 47 47 47 46 49 47 51 51 51 47 44 43 47 52 54 57 58 59 60 62 63 65 69 69 66 65 66 69 71 71 67 61 61 62 58 53 48 47 49 46 44
41 42 45 48 45 42 42 47 47 41 39 34 34 34 35 36 37 43 48 53 55 59 60 61 62 66 69 67 64 66 68 71 71 70 67 67 66 63 59 55 53 58 57 51
40 39 43 47 47 44 43 41 36 29 30 29 22 25 20 24 24 28 35 44 49 53 56 58 59 61 65 67 63 62 68 70 70 73 72 69 66 65 61 58 55 58 59 56
39 41 43 46 47 43 42 42 34 32 26 24 15 25 8 18 11 13 27 33 40 45 49 53 53 53 54 56 56 54 57 63 70 72 72 69 69 68 64 61 55 60 60 46
40 40 43 41 41 39 39 42 37 34 25 24 20 21 19 16 14 14 22 27 31 36 42 46 46 46 47 46 45 41 43 49 55 66 70 71 72 73 66 53 50 47 46 49
42 43 41 41 38 36 38 38 32 27 25 22 26 23 25 11 15 16 21 24 30 33 37 40 39 36 38 41 35 33 32 31 38 44 58 68 69 71 58 53 55 52 42 53
47 45 45 39 37 34 33 32 27 32 31 33 31 31 16 22 17 18 18 20 25 26 30 36 36 33 33 39 41 37 35 32 27 26 39 58 62 61 68 69 68 64 57 56
50 44 43 37 35 35 30 27 24 29 31 34 30 26 25 24 16 21 20 23 26 30 30 31 33 33 34 39 41 36 38 39 34 30 34 47 57 59 58 67 67 62 63 61
49 53 42 37 33 31 28 24 24 25 30 30 23 23 21 16 11 17 23 23 29 34 36 37 38 37 35 39 41 44 41 42 40 34 34 46 60 59 57 60 56 66 69 71
50 51 42 35 30 27 26 24 21 22 25 30 34 22 20 18 9 13 21 24 25 29 36 41 46 47 45 43 45 44 46 43 41 37 31 34 62 65 65 68 73 68 56 61
50 50 41 32 26 23 25 15 18 27 26 32 34 25 23 23 20 22 25 26 27 28 31 32 37 49 49 48 45 48 49 49 47 43 40 35 53 62 75 69 61 60 28 31
47 44 40 34 28 34 25 22 22 27 32 31 33 25 28 27 21 23 29 33 36 36 35 34 35 41 48 48 44 45 45 48 49 47 45 40 43 64 74 54 68 40 32 39
40 36 36 34 29 31 22 17 25 32 32 31 35 39 35 33 34 35 34 38 42 44 41 35 36 39 44 49 49 46 43 45 48 48 48 44 40 55 58 52 42 49 41 42
35 31 32 32 31 31 22 23 22 24 28 38 40 45 48 50 50 49 48 48 48 46 47 49 44 39 40 42 45 46 44 44 45 47 50 50 48 52 54 71 38 46 45 49
36 32 31 28 32 27 23 23 26 27 31 40 46 46 43 41 36 38 41 43 47 55 53 51 52 50 47 46 47 45 43 44 44 45 47 49 50 56 43 68 49 52 51 32
35 35 35 29 29 24 24 26 28 32 38 41 43 41 39 38 39 41 37 43 39 41 50 58 56 55 50 49 46 45 46 43 47 45 44 52 52 54 44 66 59 54 50 36
34 36 38 38 31 24 30 31 34 41 38 41 35 34 36 41 39 40 35 38 42 41 35 45 60 59 55 52 51 44 46 44 45 47 46 50 51 46 45 71 65 60 47 52
32 34 37 39 33 30 29 32 39 46 32 41 40 33 29 33 43 26 31 34 32 34 34 39 50 60 60 54 51 46 46 40 43 49 52 50 48 44 36 63 55 59 57 51
30 33 35 30 34 36 32 36 45 48 45 43 42 36 22 28 31 25 35 36 39 27 33 33 38 45 56 53 49 47 44 41 41 52 53 50 43 42 36 61 66 60 58 47
30 32 32 28 32 33 39 43 46 45 47 42 35 24 14 20 20 23 19 28 31 26 25 26 31 34 44 47 45 48 44 43 46 54 51 51 48 46 39 50 55 57 50 33
29 33 32 26 33 35 36 37 43 44 40 35 17 16 13 15 22 13 7 2 9 14 18 23 27 34 39 41 43 47 45 46 52 52 54 52 49 44 37 44 57 48 47 34
28 34 32 30 34 32 36 39 38 41 36 24 20 18 20 17 18 14 15 13 13 21 16 24 28 32 34 36 39 40 41 45 51 52 54 53 50 42 38 42 56 50 38 30
28 32 33 26 26 29 31 31 36 33 28 20 9 24 21 15 21 22 17 20 25 26 26 24 27 27 32 34 36 38 38 41 45 49 52 54 50 45 39 40 56 41 32 28
28 29 28 21 24 25 28 30 31 27 20 20 14 14 16 16 15 19 22 23 21 21 20 21 24 26 29 32 34 37 42 45 48 55 51 55 51 46 46 54 44 38 35 28
23 26 26 21 24 25 24 25 28 26 17 17 13 26 20 15 10 9 13 13 18 20 21 24 28 28 27 30 32 32 33 41 46 45 48 53 52 52 56 57 44 40 35 24
Wind_Direction
335 330 327 320 309 299 296 297 294 288 290 286 272 268 269 265 261 259 253 250 248 246 245 242 241 239 236 235 232 231 234 235 236 235 236 240 244 245 243 244 248 245 240 247
333 329 326 322 315 308 302 302 298 297 293 286 272 265 264 262 260 254 253 249 245 244 243 242 239 239 239 236 234 231 230 232 233 233 232 231 239 241 243 237 243 235 243 248
330 327 323 321 315 315 311 310 305 302 297 292 288 268 268 266 272 259 251 245 242 240 240 238 237 235 236 236 235 234 231 230 230 231 229 230 232 237 237 239 238 240 245 244
325 325 322 320 315 314 310 315 314 312 306 308 304 274 273 277 282 270 251 244 237 234 233 235 234 233 232 232 233 231 232 231 227 227 229 230 229 234 234 239 240 245 252 245
326 328 321 318 315 314 313 319 314 316 310 311 323 298 322 330 304 268 251 244 237 234 230 230 230 231 233 232 231 232 231 231 230 225 225 226 226 229 233 235 238 241 248 222
325 328 323 319 318 315 314 315 308 309 307 306 311 297 315 316 285 260 245 245 232 222 222 224 225 231 235 235 234 231 233 234 232 231 225 222 225 219 231 224 230 220 213 222
325 326 326 321 318 318 316 317 310 304 309 307 302 309 324 301 289 259 249 239 220 216 220 222 226 231 231 231 229 225 227 229 234 232 229 226 226 226 224 218 221 226 239 217
326 329 325 327 323 320 318 313 299 295 298 298 299 301 297 301 278 270 238 238 233 229 223 222 224 224 226 228 231 227 225 222 226 229 223 225 226 223 227 224 228 230 236 221
325 328 323 325 321 318 318 307 295 292 298 303 310 318 327 306 280 265 242 220 229 235 232 224 222 224 222 226 231 228 227 228 224 225 212 214 215 224 227 227 229 228 226 215
324 326 324 322 323 318 315 296 291 295 300 299 298 293 293 282 262 265 246 233 223 222 229 232 233 229 227 224 230 229 226 228 229 228 214 214 208 213 216 213 216 226 222 214
322 319 329 321 328 319 309 306 290 287 292 292 299 299 276 291 278 264 253 234 226 221 223 229 231 230 226 225 225 229 228 223 223 215 207 215 209 211 211 215 220 211 213 217
319 317 326 325 326 319 313 299 283 283 286 285 291 308 301 282 274 253 240 235 235 229 222 230 232 230 230 227 223 225 228 226 219 217 213 218 214 208 217 222 206 199 195 209
321 327 328 332 336 322 318 314 298 286 287 301 295 305 297 286 270 247 240 236 237 239 235 223 227 225 226 231 229 227 225 226 223 218 214 212 213 211 218 217 209 215 225 222
324 329 320 328 329 313 318 303 296 294 295 301 296 296 294 289 278 270 256 248 244 246 244 235 224 222 223 225 226 225 224 226 223 219 213 212 213 218 230 208 186 211 212 218
330 332 322 328 324 321 320 303 298 290 288 294 295 289 290 285 281 276 266 259 255 248 244 241 237 231 227 221 228 229 219 218 222 219 213 215 211 230 225 220 217 201 205 211
333 334 327 338 322 325 325 310 306 299 299 297 294 287 286 287 284 279 273 271 261 249 242 240 237 235 229 228 223 227 224 217 215 217 215 213 211 228 228 216 211 206 202 200
330 329 326 336 328 330 320 319 315 309 310 310 304 300 289 279 282 282 283 271 264 258 246 235 233 234 228 224 224 222 223 219 212 213 213 217 213 222 223 209 204 212 197 191
331 328 328 328 331 342 330 322 323 320 323 315 313 297 285 278 270 284 276 270 265 264 249 237 230 227 228 224 220 223 222 215 210 208 210 215 218 220 219 209 202 200 196 210
328 327 326 327 331 334 330 331 327 325 334 325 320 308 283 298 285 279 279 262 269 262 244 232 227 224 221 221 219 218 215 211 205 205 208 210 212 218 224 208 196 196 202 208
329 332 329 330 331 331 331 337 334 329 329 334 327 315 277 314 287 282 279 260 256 259 237 225 218 218 218 216 213 213 212 205 198 202 202 203 206 212 213 207 189 195 204 204
328 335 332 329 330 333 336 338 331 332 331 338 335 326 289 319 327 317 301 264 251 236 224 213 217 209 205 207 203 206 207 198 194 202 196 199 203 208 211 210 201 196 202 199
328 334 337 327 330 337 331 332 337 333 338 347 359 8 1 4 354 354 341 312 189 196 170 169 169 177 184 188 194 197 195 195 195 194 193 196 202 208 203 205 188 197 201 192
324 331 341 327 327 332 337 338 340 340 350 353 42 23 19 354 13 45 59 87 121 150 153 161 161 163 169 174 179 185 190 191 192 195 194 198 202 207 205 201 204 209 192 176
318 329 334 320 324 334 338 344 351 3 352 6 320 26 32 32 59 66 87 103 112 122 125 137 149 155 160 166 175 183 187 187 193 195 197 196 200 202 199 189 194 193 191 190
319 327 332 320 328 342 340 349 358 3 13 20 23 37 43 41 73 91 98 102 110 120 128 143 153 159 169 175 182 188 192 194 197 194 195 192 194 195 184 182 188 197 201 206
314 329 337 331 336 349 358 1 14 23 20 22 45 46 23 33 49 86 118 129 137 141 145 145 150 158 174 191 198 208 210 200 193 190 195 194 187 175 174 184 185 187 192 202
Height
5756 5751 5745 5739 5733 5726 5718 5715 5711 5709 5701 5692 5696 5687 5696 5693 5690 5693 5698 5702 5708 5713 5717 5724 5730 5736 5743 5752 5762 5771 5779 5789 5796 5804 5811 5818 5824 5831 5837 5842 5847 5850 5854 5858
5750 5742 5736 5729 5722 5715 5709 5701 5698 5692 5682 5673 5673 5677 5679 5674 5671 5675 5678 5685 5691 5695 5698 5706 5714 5719 5727 5736 5746 5754 5764 5773 5783 5791 5801 5808 5812 5820 5826 5832 5836 5841 5846 5850
5743 5737 5728 5720 5714 5707 5699 5690 5683 5676 5668 5663 5657 5665 5662 5661 5654 5657 5661 5666 5672 5677 5682 5688 5696 5705 5713 5722 5731 5740 5749 5758 5769 5778 5785 5791 5799 5805 5813 5821 5827 5831 5837 5842
5736 5729 5720 5711 5703 5696 5691 5682 5673 5667 5660 5654 5654 5648 5654 5650 5646 5644 5647 5649 5655 5661 5667 5673 5681 5690 5698 5709 5716 5724 5732 5743 5754 5762 5772 5778 5789 5798 5806 5812 5819 5823 5828 5831
5727 5718 5709 5700 5692 5686 5679 5671 5666 5661 5655 5650 5650 5644 5645 5643 5640 5639 5637 5639 5644 5651 5657 5663 5672 5679 5686 5694 5703 5711 5718 5725 5735 5746 5758 5768 5777 5785 5792 5800 5808 5812 5816 5820
5717 5710 5700 5691 5684 5675 5669 5662 5657 5653 5650 5647 5645 5642 5642 5641 5636 5632 5630 5632 5637 5645 5651 5657 5665 5673 5679 5686 5691 5701 5708 5715 5722 5731 5743 5753 5763 5773 5783 5791 5798 5803 5809 5815
5708 5700 5692 5683 5676 5669 5661 5655 5649 5648 5645 5643 5641 5637 5635 5634 5629 5628 5627 5630 5634 5640 5646 5652 5659 5666 5671 5677 5683 5690 5697 5704 5710 5717 5726 5739 5750 5763 5774 5778 5788 5793 5801 5809
5697 5693 5682 5674 5664 5661 5655 5649 5646 5639 5638 5635 5635 5632 5634 5626 5625 5622 5624 5629 5633 5637 5641 5648 5653 5659 5664 5668 5672 5681 5688 5695 5700 5707 5714 5724 5737 5749 5758 5769 5777 5783 5793 5800
5687 5686 5674 5668 5659 5652 5648 5643 5640 5634 5633 5627 5625 5626 5624 5620 5618 5617 5618 5623 5627 5632 5636 5640 5646 5651 5656 5659 5663 5672 5678 5684 5691 5698 5703 5712 5724 5736 5746 5757 5765 5773 5783 5787
5679 5670 5669 5660 5652 5645 5640 5636 5634 5630 5625 5622 5624 5624 5623 5618 5614 5613 5611 5614 5618 5623 5626 5630 5635 5641 5646 5651 5654 5661 5668 5675 5683 5690 5695 5701 5710 5724 5735 5745 5754 5761 5769 5778
5668 5660 5661 5650 5646 5640 5633 5629 5627 5624 5621 5616 5612 5615 5616 5611 5609 5607 5606 5606 5609 5612 5616 5619 5623 5628 5635 5640 5645 5650 5657 5665 5672 5682 5688 5693 5701 5711 5721 5731 5741 5752 5751 5766
5659 5650 5646 5643 5639 5632 5627 5624 5622 5616 5617 5610 5605 5602 5604 5602 5600 5598 5598 5599 5600 5603 5606 5608 5610 5616 5621 5627 5635 5640 5646 5654 5663 5672 5681 5688 5693 5701 5707 5716 5723 5734 5742 5754
5651 5643 5634 5633 5631 5622 5619 5617 5613 5609 5604 5602 5595 5595 5593 5590 5589 5590 5589 5588 5590 5592 5595 5598 5601 5604 5610 5617 5625 5631 5637 5644 5653 5663 5672 5680 5685 5689 5693 5695 5708 5721 5735 5747
5643 5638 5631 5626 5624 5616 5613 5610 5605 5600 5594 5591 5589 5579 5581 5582 5580 5578 5577 5578 5579 5581 5584 5588 5592 5596 5599 5605 5612 5620 5628 5636 5643 5652 5663 5672 5677 5677 5680 5691 5693 5721 5730 5742
5639 5633 5625 5621 5614 5609 5604 5601 5599 5594 5589 5582 5578 5570 5568 5563 5560 5559 5563 5564 5565 5569 5572 5576 5583 5588 5592 5596 5602 5608 5617 5625 5634 5643 5652 5660 5670 5666 5677 5686 5689 5712 5722 5733
5631 5626 5621 5617 5608 5602 5598 5594 5591 5586 5582 5575 5565 5558 5553 5547 5546 5544 5542 5541 5544 5548 5555 5561 5566 5572 5579 5586 5592 5599 5608 5616 5623 5632 5643 5652 5662 5662 5668 5683 5696 5705 5715 5727
5626 5620 5615 5612 5603 5598 5593 5588 5584 5579 5572 5560 5549 5547 5542 5537 5532 5528 5527 5523 5524 5526 5531 5540 5547 5554 5564 5573 5581 5589 5597 5606 5615 5625 5636 5641 5651 5658 5665 5676 5691 5705 5714 5720
5622 5614 5609 5601 5596 5593 5590 5582 5575 5566 5560 5550 5541 5533 5526 5521 5517 5515 5509 5507 5507 5507 5512 5517 5527 5536 5547 5558 5569 5578 5587 5597 5606 5617 5625 5634 5642 5652 5659 5669 5679 5697 5707 5715
5618 5611 5604 5594 5590 5588 5581 5575 5566 5552 5549 5537 5527 5520 5513 5508 5500 5507 5494 5489 5490 5491 5494 5499 5505 5519 5530 5543 5557 5568 5578 5589 5599 5609 5615 5628 5638 5648 5654 5665 5676 5690 5701 5709
5615 5608 5601 5593 5585 5578 5574 5566 5557 5546 5535 5526 5516 5506 5499 5497 5490 5491 5480 5475 5474 5477 5480 5486 5494 5504 5517 5532 5546 5560 5571 5582 5593 5602 5609 5623 5633 5641 5647 5658 5673 5687 5696 5702
5610 5605 5596 5590 5581 5575 5566 5557 5551 5541 5530 5520 5507 5497 5494 5490 5481 5472 5464 5459 5461 5467 5471 5478 5486 5495 5508 5523 5538 5551 5563 5575 5586 5594 5606 5618 5627 5635 5642 5652 5668 5684 5695 5700
5606 5599 5592 5586 5577 5570 5565 5558 5545 5534 5525 5513 5506 5498 5492 5486 5479 5468 5462 5457 5459 5462 5468 5475 5483 5494 5506 5519 5531 5544 5556 5568 5579 5590 5601 5612 5622 5631 5640 5651 5664 5675 5687 5692
5603 5595 5589 5581 5573 5569 5560 5550 5541 5529 5519 5512 5505 5499 5491 5486 5479 5470 5466 5462 5462 5467 5472 5479 5488 5498 5509 5519 5530 5542 5554 5566 5575 5585 5599 5608 5620 5632 5641 5651 5662 5677 5688 5691
5597 5590 5585 5578 5574 5566 5557 5549 5539 5529 5519 5512 5505 5501 5495 5490 5485 5479 5475 5475 5476 5479 5484 5489 5497 5504 5512 5522 5533 5542 5553 5564 5573 5583 5593 5604 5620 5629 5637 5648 5665 5680 5687 5693
5592 5586 5580 5576 5569 5565 5556 5547 5538 5530 5521 5515 5507 5504 5502 5499 5493 5490 5489 5488 5489 5491 5494 5499 5504 5511 5518 5526 5534 5544 5551 5559 5567 5578 5588 5601 5614 5627 5637 5650 5665 5676 5684 5696
5588 5583 5577 5572 5566 5559 5553 5547 5539 5531 5526 5520 5516 5510 5507 5506 5503 5500 5498 5497 5497 5499 5501 5505 5511 5517 5523 5529 5534 5540 5546 5553 5563 5575 5586 5598 5613 5625 5638 5653 5665 5675 5686 5695